554  
ASUS41 KPHI 240212  
RWRPHI  
 
REGIONAL WEATHER ROUNDUP  
NATIONAL WEATHER SERVICE MOUNT HOLLY NJ  
1000 PM EDT WED SEP 23 2020  
 
NOTE: "FAIR" INDICATES FEW OR NO CLOUDS BELOW 12,000 FEET WITH NO  
SIGNIFICANT WEATHER AND/OR S TO VISIBILITY
.  
 
* = STATION DOES NOT REPORT PRECIPITATION (E.G. RAIN, SNOW, ETC.)  
OR FOG.
 
 
NJZ015>026-240300-  
SOUTHERN NEW JERSEY  
 
CITY SKY/WX TMP DP RH WIND PRES REMARKS
 
POMONA CLEAR 67 55 65 SW6 29.95R  
WILDWOOD* CLEAR 67 58 72 SW9 29.97R  
MILLVILLE CLEAR 65 56 72 W8 29.95R  
WRIGHTSTOWN CLEAR 63 56 76 SW10 29.92R  
MOUNT HOLLY CLEAR 68 56 65 VRB5 29.93R  
TRENTON CLEAR 61 53 75 CALM 29.91R  
 

 
NJZ001>014-240300-  
NORTHERN NEW JERSEY  
 
CITY SKY/WX TMP DP RH WIND PRES REMARKS
 
SUSSEX CLEAR 54 52 93 CALM 29.93R FOG  
ANDOVER* N/A 55 53 93 SW3 29.94R  
NEWARK CLEAR 73 53 49 CALM 29.91R  
TETERBORO CLEAR 65 52 62 CALM 29.90R  
CALDWELL CLEAR 63 54 72 CALM 29.92R  
SOMERVILLE CLEAR 56 54 93 CALM 29.91R  
ALLAIRE* CLEAR 65 58 78 SW7 29.93R  
TOMS RIVER* CLEAR 62 55 77 SW7 29.93R  
 

 
PAZ043-044-047-054-055-060>062-066>071-240300-  
EASTERN PENNSYLVANIA  
 
CITY SKY/WX TMP DP RH WIND PRES REMARKS
 
PHILADELPHIA PTCLDY 69 56 62 SW10 29.94R  
NORTH PHILA CLEAR 71 55 56 SW7 29.94R  
BLUE BELL* CLEAR 56 53 91 CALM 29.93S  
DOYLESTOWN CLEAR 67 53 61 S3 29.92R  
QUAKERTOWN* CLEAR 57 55 94 CALM 29.94R  
PERKASIE* N/A 57 57 100 CALM 29.95R  
POTTSTOWN CLEAR 59 53 80 CALM 29.95R  
LANCASTER PTCLDY 67 52 58 SW5 29.95R  
COATESVILLE PTCLDY 68 54 60 W5 29.97R  
WEST CHESTER FAIR 64 55 72 CALM 29.95S  
READING CLEAR 67 55 65 CALM 29.92R  
ALLENTOWN CLEAR 59 51 75 NW5 29.93R  
QN CITY/ALNTWN FAIR 63 54 72 CALM 29.94S  
MOUNT POCONO CLEAR 55 45 68 NW7 29.98R  
HAZLETON CLEAR 52 46 82 CALM 30.01R  
LEHIGHTON FAIR 52 52 100 CALM 29.96R  
WILKES BARRE CLEAR 62 44 51 E7 29.96R  
 

 
DEZALL-MDZ008-012-015-019-020-240300-  
DELAWARE AND EASTERN MARYLAND  
 
CITY SKY/WX TMP DP RH WIND PRES REMARKS
 
WILMINGTON CLEAR 66 56 70 W9 29.95R  
DOVER CLEAR 65 56 74 SW8 29.96R  
CHESWOLD CLEAR 64 57 77 SW7 29.96S  
GEORGETOWN PTCLDY 64 57 78 SW6 29.98R  
EASTON CLEAR 64 59 82 CALM 30.02R  
STEVENSVILLE PTCLDY 70 55 60 SW7 29.98R  
ABERDEEN PTCLDY 60 57 89 W5 29.95R  
PATUXENT PTCLDY 66 54 65 SW8 29.99  
OCEAN CITY PTCLDY 63 56 78 W7 29.99S  
WALLOPS ISLAND PTCLDY 65 58 78 W7 30.01R  
CAMBRIDGE CLEAR 59 57 94 CALM 29.99R  
SALISBURY PTCLDY 62 55 77 SW3 29.99R  
 

 
PAZ001-021-NYZ056-072-MDZ011-DCZ001-240300-  
OTHER NEARBY LOCATIONS  
 
CITY SKY/WX TMP DP RH WIND PRES REMARKS
 
HARRISBURG PTCLDY 66 54 65 NW6 29.95R  
STATE COLLEGE CLEAR 63 52 67 CALM 30.00R  
WILLIAMSPORT PTCLDY 61 47 59 CALM 29.94R  
BINGHAMTON CLEAR 62 48 60 NW3 29.97R  
NEW YORK CITY CLEAR 72 51 47 W5 29.93R  
BALTIMORE MOCLDY 65 53 65 W5 29.97R  
WASHINGTON DC MOCLDY 67 55 65 S8 30.00R  
 

 
 
 
CLICK HERE TO GO TO PREVIOUS BULLETINS.

The Nexlab PA Page
The Nexlab NJ Page
The Nexlab DE Page
The Nexlab MD Page Main Text Page